JES3870 SLVR-SABE

Flight info

Callsign JES3870
Flight time 2h 37m
Altitude 37000
Route KABOM UL404 BOLET UM784 SIS/N0454F380 UL793 GUA UZ129 PAGON
Aircraft A320/M-SDE3FGHIRWY/LB1

Departure

Time 2026-05-05 21:20
Airport Viru Viru International Airport (SLVR)

Arrival

Time 2026-05-05 23:57
Airport Aeroparque Jorge Newbery (SABE)
Time Latitude Longitude Altitude Speed Heading
2026-05-05 21:05 -17.64713 -63.14003 1231 ft 0 kts 237°
2026-05-05 21:11 -17.64703 -63.13986 1231 ft 4 kts 237°
2026-05-05 21:12 -17.64690 -63.13966 1232 ft 3 kts 235°
2026-05-05 21:12 -17.64676 -63.13948 1232 ft 3 kts 218°
2026-05-05 21:12 -17.64662 -63.13940 1232 ft 2 kts 169°
2026-05-05 21:12 -17.64650 -63.13947 1232 ft 2 kts 128°
2026-05-05 21:13 -17.64646 -63.13953 1231 ft 0 kts 146°
2026-05-05 21:15 -17.64651 -63.13949 1231 ft 4 kts 146°
2026-05-05 21:15 -17.64697 -63.13916 1231 ft 12 kts 146°
2026-05-05 21:15 -17.64790 -63.13852 1231 ft 18 kts 147°
2026-05-05 21:16 -17.64872 -63.13797 1231 ft 9 kts 141°
2026-05-05 21:16 -17.64873 -63.13732 1231 ft 12 kts 60°
2026-05-05 21:16 -17.64816 -63.13637 1231 ft 17 kts 57°
2026-05-05 21:16 -17.64827 -63.13537 1231 ft 17 kts 146°
2026-05-05 21:17 -17.64933 -63.13466 1231 ft 19 kts 147°
2026-05-05 21:17 -17.65046 -63.13389 1231 ft 20 kts 147°
2026-05-05 21:17 -17.65169 -63.13307 1231 ft 22 kts 147°
2026-05-05 21:17 -17.65295 -63.13222 1231 ft 23 kts 147°
2026-05-05 21:18 -17.65433 -63.13128 1232 ft 24 kts 147°
2026-05-05 21:18 -17.65579 -63.13030 1232 ft 26 kts 147°
2026-05-05 21:18 -17.65727 -63.12930 1232 ft 26 kts 148°
2026-05-05 21:18 -17.65859 -63.12841 1232 ft 20 kts 144°
2026-05-05 21:19 -17.65845 -63.12725 1233 ft 18 kts 55°
2026-05-05 21:19 -17.65744 -63.12685 1246 ft 19 kts 331°
2026-05-05 21:19 -17.65502 -63.12847 1234 ft 72 kts 327°
2026-05-05 21:19 -17.64921 -63.13238 1231 ft 124 kts 327°
2026-05-05 21:20 -17.64082 -63.13800 1336 ft 156 kts 330°
2026-05-05 21:20 -17.63147 -63.14440 1776 ft 167 kts 327°
2026-05-05 21:20 -17.62156 -63.15130 2339 ft 174 kts 327°
2026-05-05 21:20 -17.61061 -63.15797 2660 ft 197 kts 340°
2026-05-05 21:21 -17.59602 -63.15937 3012 ft 227 kts
2026-05-05 21:21 -17.58086 -63.15270 3543 ft 255 kts 33°
2026-05-05 21:21 -17.57009 -63.13724 4272 ft 277 kts 65°
2026-05-05 21:21 -17.56869 -63.11663 5051 ft 296 kts 98°
2026-05-05 21:22 -17.57792 -63.09730 5854 ft 307 kts 131°
2026-05-05 21:22 -17.59543 -63.08389 6658 ft 312 kts 156°
2026-05-05 21:22 -17.61616 -63.07756 7401 ft 311 kts 178°
2026-05-05 21:22 -17.63780 -63.07718 8136 ft 313 kts 184°
2026-05-05 21:23 -17.65967 -63.07750 8854 ft 317 kts 184°
2026-05-05 21:23 -17.68192 -63.07801 9538 ft 321 kts 184°
2026-05-05 21:23 -17.70445 -63.07858 10107 ft 330 kts 184°
2026-05-05 21:23 -17.72791 -63.07919 10237 ft 352 kts 184°
2026-05-05 21:24 -17.75307 -63.07980 10403 ft 369 kts 183°
2026-05-05 21:24 -17.77902 -63.08034 10885 ft 374 kts 182°
2026-05-05 21:24 -17.80522 -63.08084 11412 ft 379 kts 182°
2026-05-05 21:24 -17.83154 -63.08130 12053 ft 377 kts 181°
2026-05-05 21:25 -17.85800 -63.08177 12564 ft 381 kts 181°
2026-05-05 21:25 -17.88453 -63.08228 13189 ft 381 kts 181°
2026-05-05 21:25 -17.91097 -63.08283 13829 ft 379 kts 181°
2026-05-05 21:25 -17.93732 -63.08339 14418 ft 378 kts 180°
2026-05-05 21:26 -17.96372 -63.08392 14909 ft 381 kts 181°
2026-05-05 21:26 -17.99033 -63.08443 15394 ft 383 kts 180°
2026-05-05 21:26 -18.01700 -63.08495 15900 ft 384 kts 180°
2026-05-05 21:26 -18.04384 -63.08547 16369 ft 387 kts 180°
2026-05-05 21:27 -18.07088 -63.08602 16813 ft 390 kts 180°
2026-05-05 21:27 -18.09779 -63.08655 17294 ft 392 kts 180°
2026-05-05 21:27 -18.12518 -63.08709 17734 ft 396 kts 180°
2026-05-05 21:27 -18.15284 -63.08765 18194 ft 399 kts 180°
2026-05-05 21:28 -18.18073 -63.08821 18595 ft 402 kts 181°
2026-05-05 21:28 -18.20873 -63.08877 19036 ft 403 kts 180°
2026-05-05 21:28 -18.23688 -63.08932 19428 ft 406 kts 181°
2026-05-05 21:28 -18.26523 -63.08988 19846 ft 409 kts 181°
2026-05-05 21:29 -18.29381 -63.09044 20277 ft 411 kts 181°
2026-05-05 21:29 -18.32250 -63.09100 20644 ft 414 kts 181°
2026-05-05 21:29 -18.35148 -63.09158 21046 ft 417 kts 181°
2026-05-05 21:29 -18.37957 -63.09218 21436 ft 420 kts 181°
2026-05-05 21:30 -18.40893 -63.09280 21791 ft 424 kts 181°
2026-05-05 21:30 -18.43846 -63.09338 22196 ft 425 kts 182°
2026-05-05 21:30 -18.46809 -63.09395 22623 ft 427 kts 182°
2026-05-05 21:30 -18.49794 -63.09452 22977 ft 430 kts 182°
2026-05-05 21:31 -18.52786 -63.09510 23402 ft 431 kts 182°
2026-05-05 21:31 -18.55795 -63.09570 23703 ft 434 kts 182°
2026-05-05 21:31 -18.58823 -63.09631 24009 ft 436 kts 182°
2026-05-05 21:31 -18.61860 -63.09693 24347 ft 438 kts 183°
2026-05-05 21:32 -18.64874 -63.09752 24653 ft 440 kts 183°
2026-05-05 21:32 -18.67945 -63.09813 24966 ft 442 kts 183°
2026-05-05 21:32 -18.71021 -63.09876 25323 ft 442 kts 183°
2026-05-05 21:32 -18.74105 -63.09938 25647 ft 444 kts 183°
2026-05-05 21:33 -18.77197 -63.10000 25985 ft 445 kts 182°
2026-05-05 21:33 -18.80309 -63.10059 26313 ft 447 kts 183°
2026-05-05 21:33 -18.83426 -63.10117 26604 ft 449 kts 184°
2026-05-05 21:33 -18.86551 -63.10177 26912 ft 450 kts 184°
2026-05-05 21:34 -18.89692 -63.10241 27217 ft 452 kts 183°
2026-05-05 21:34 -18.92848 -63.10307 27535 ft 454 kts 184°
2026-05-05 21:34 -18.95977 -63.10373 27859 ft 455 kts 185°
2026-05-05 21:34 -18.99149 -63.10398 28181 ft 457 kts 181°
2026-05-05 21:35 -19.02339 -63.10333 28511 ft 459 kts 180°
2026-05-05 21:35 -19.05540 -63.10203 28853 ft 461 kts 180°
2026-05-05 21:35 -19.08751 -63.10043 29163 ft 463 kts 181°
2026-05-05 21:35 -19.11978 -63.09886 29474 ft 465 kts 180°
2026-05-05 21:36 -19.15208 -63.09742 29893 ft 464 kts 182°
2026-05-05 21:36 -19.18425 -63.09615 30333 ft 461 kts 182°
2026-05-05 21:36 -19.21626 -63.09504 30746 ft 459 kts 182°
2026-05-05 21:36 -19.24828 -63.09402 31134 ft 458 kts 182°
2026-05-05 21:37 -19.27975 -63.09302 31544 ft 457 kts 181°
2026-05-05 21:37 -19.31153 -63.09201 31943 ft 456 kts 181°
2026-05-05 21:37 -19.34317 -63.09095 32376 ft 454 kts 181°
2026-05-05 21:37 -19.37467 -63.08984 32828 ft 452 kts 181°
2026-05-05 21:38 -19.40610 -63.08874 33268 ft 450 kts 181°
2026-05-05 21:38 -19.43740 -63.08765 33705 ft 449 kts 182°
2026-05-05 21:38 -19.46859 -63.08657 34100 ft 448 kts 182°
2026-05-05 21:38 -19.49972 -63.08550 34441 ft 447 kts 182°
2026-05-05 21:39 -19.53087 -63.08439 34763 ft 447 kts 182°
2026-05-05 21:39 -19.56194 -63.08326 35076 ft 447 kts 182°
2026-05-05 21:39 -19.59303 -63.08218 35371 ft 446 kts 182°
2026-05-05 21:39 -19.62410 -63.08114 35671 ft 446 kts 182°
2026-05-05 21:40 -19.65515 -63.08010 35984 ft 446 kts 182°
2026-05-05 21:40 -19.68611 -63.07904 36287 ft 445 kts 182°
2026-05-05 21:40 -19.71704 -63.07796 36574 ft 445 kts 182°
2026-05-05 21:40 -19.74767 -63.07688 36812 ft 446 kts 182°
2026-05-05 21:41 -19.81005 -63.07475 36875 ft 451 kts 182°
2026-05-05 21:41 -19.87294 -63.07254 36875 ft 453 kts 182°
2026-05-05 21:42 -19.93600 -63.07030 36875 ft 453 kts 182°
2026-05-05 21:42 -19.99911 -63.06805 36869 ft 453 kts 182°
2026-05-05 21:43 -20.06220 -63.06589 36873 ft 453 kts 182°
2026-05-05 21:43 -20.12452 -63.06375 36874 ft 454 kts 182°
2026-05-05 21:44 -20.18722 -63.06152 36878 ft 454 kts 182°
2026-05-05 21:44 -20.25039 -63.05928 36889 ft 454 kts 182°
2026-05-05 21:45 -20.33268 -63.05641 36888 ft 453 kts 182°
2026-05-05 21:46 -20.39534 -63.05423 36885 ft 453 kts 182°
2026-05-05 21:46 -20.45779 -63.05205 36883 ft 453 kts 182°
2026-05-05 21:47 -20.48501 -63.05111 36876 ft 453 kts 182°
2026-05-05 21:47 -20.51348 -63.05015 36874 ft 453 kts 182°
2026-05-05 21:48 -20.57609 -63.04812 36879 ft 453 kts 182°
2026-05-05 21:48 -20.63918 -63.04599 36874 ft 453 kts 182°
2026-05-05 21:49 -20.70216 -63.04389 36872 ft 453 kts 182°
2026-05-05 21:49 -20.76529 -63.04167 36869 ft 453 kts 182°
2026-05-05 21:50 -20.82841 -63.03954 36870 ft 453 kts 183°
2026-05-05 21:50 -20.89144 -63.03751 36869 ft 453 kts 183°
2026-05-05 21:51 -20.95428 -63.03539 36863 ft 453 kts 183°
2026-05-05 21:51 -21.01733 -63.03318 36860 ft 453 kts 183°
2026-05-05 21:52 -21.11212 -63.02995 36860 ft 454 kts 183°
2026-05-05 21:53 -21.17490 -63.02782 36864 ft 454 kts 183°
2026-05-05 21:53 -21.23812 -63.02566 36859 ft 454 kts 183°
2026-05-05 21:54 -21.30131 -63.01948 36860 ft 461 kts 171°
2026-05-05 21:54 -21.36146 -62.99393 36847 ft 470 kts 157°
2026-05-05 21:55 -21.41976 -62.96190 36850 ft 470 kts 158°
2026-05-05 21:55 -21.47809 -62.92994 36843 ft 471 kts 158°
2026-05-05 21:56 -21.53652 -62.89792 36842 ft 472 kts 158°
2026-05-05 21:56 -21.59504 -62.86578 36842 ft 472 kts 158°
2026-05-05 21:57 -21.65317 -62.83377 36847 ft 472 kts 158°
2026-05-05 21:57 -21.71179 -62.80147 36861 ft 472 kts 158°
2026-05-05 21:58 -21.77029 -62.76924 36858 ft 472 kts 158°
2026-05-05 21:58 -21.82853 -62.73715 36856 ft 472 kts 158°
2026-05-05 21:59 -21.88713 -62.70485 36852 ft 472 kts 158°
2026-05-05 21:59 -21.94565 -62.67249 36861 ft 472 kts 158°
2026-05-05 22:00 -22.00425 -62.64012 36856 ft 472 kts 158°
2026-05-05 22:00 -22.06279 -62.60781 36854 ft 473 kts 158°
2026-05-05 22:01 -22.12135 -62.57540 36854 ft 473 kts 158°
2026-05-05 22:01 -22.17956 -62.54309 36853 ft 473 kts 158°
2026-05-05 22:02 -22.23821 -62.51048 36862 ft 473 kts 158°
2026-05-05 22:02 -22.29668 -62.47796 36860 ft 473 kts 158°
2026-05-05 22:03 -22.35486 -62.44560 36857 ft 472 kts 158°
2026-05-05 22:03 -22.41327 -62.41295 36859 ft 473 kts 157°
2026-05-05 22:04 -22.47077 -62.37780 36871 ft 475 kts 154°
2026-05-05 22:04 -22.52718 -62.34116 36863 ft 476 kts 154°
2026-05-05 22:05 -22.58401 -62.30442 36857 ft 475 kts 155°
2026-05-05 22:05 -22.64116 -62.26830 36859 ft 475 kts 155°
2026-05-05 22:06 -22.69842 -62.23230 36857 ft 476 kts 155°
2026-05-05 22:06 -22.75565 -62.19608 36861 ft 475 kts 155°
2026-05-05 22:07 -22.81236 -62.16007 36869 ft 475 kts 155°
2026-05-05 22:07 -22.86935 -62.12389 36869 ft 474 kts 155°
2026-05-05 22:08 -22.92636 -62.08765 36866 ft 474 kts 155°
2026-05-05 22:08 -22.98329 -62.05136 36878 ft 474 kts 155°
2026-05-05 22:09 -23.04023 -62.01510 36874 ft 474 kts 155°
2026-05-05 22:09 -23.09680 -61.97905 36872 ft 474 kts 155°
2026-05-05 22:10 -23.15375 -61.94278 36866 ft 474 kts 155°
2026-05-05 22:10 -23.21057 -61.90641 36871 ft 474 kts 155°
2026-05-05 22:11 -23.26745 -61.87005 36885 ft 473 kts 156°
2026-05-05 22:11 -23.32430 -61.83370 36880 ft 473 kts 156°
2026-05-05 22:12 -23.38104 -61.79730 36877 ft 473 kts 156°
2026-05-05 22:12 -23.43748 -61.76111 36875 ft 473 kts 156°
2026-05-05 22:13 -23.49411 -61.72473 36887 ft 473 kts 156°
2026-05-05 22:13 -23.55085 -61.68832 36881 ft 473 kts 156°
2026-05-05 22:14 -23.60756 -61.65196 36879 ft 473 kts 156°
2026-05-05 22:14 -23.66425 -61.61544 36877 ft 473 kts 156°
2026-05-05 22:15 -23.72069 -61.57900 36884 ft 473 kts 156°
2026-05-05 22:15 -23.77739 -61.54230 36884 ft 474 kts 156°
2026-05-05 22:16 -23.83417 -61.50566 36880 ft 474 kts 156°
2026-05-05 22:16 -23.89068 -61.46922 36887 ft 474 kts 156°
2026-05-05 22:17 -23.94746 -61.43250 36895 ft 474 kts 156°
2026-05-05 22:17 -24.00427 -61.39557 36904 ft 474 kts 156°
2026-05-05 22:18 -24.06102 -61.35870 36889 ft 474 kts 156°
2026-05-05 22:18 -24.11777 -61.32184 36887 ft 474 kts 156°
2026-05-05 22:19 -24.17423 -61.28506 36895 ft 474 kts 156°
2026-05-05 22:19 -24.23070 -61.24775 36915 ft 474 kts 156°
2026-05-05 22:20 -24.28718 -61.21040 36904 ft 473 kts 156°
2026-05-05 22:20 -24.34363 -61.17311 36899 ft 474 kts 156°
2026-05-05 22:21 -24.39976 -61.13599 36897 ft 473 kts 156°
2026-05-05 22:21 -24.45618 -61.09867 36896 ft 474 kts 156°
2026-05-05 22:22 -24.51189 -61.06159 36904 ft 474 kts 156°
2026-05-05 22:22 -24.56830 -61.02413 36901 ft 474 kts 157°
2026-05-05 22:23 -24.62471 -60.98674 36900 ft 473 kts 156°
2026-05-05 22:23 -24.68101 -60.94913 36904 ft 473 kts 156°
2026-05-05 22:24 -24.73732 -60.91157 36914 ft 473 kts 157°
2026-05-05 22:24 -24.79369 -60.87418 36908 ft 473 kts 157°
2026-05-05 22:25 -24.85002 -60.83670 36909 ft 473 kts 157°
2026-05-05 22:25 -24.89687 -60.80539 36907 ft 473 kts 157°
2026-05-05 22:26 -24.95316 -60.76773 36911 ft 473 kts 157°
2026-05-05 22:26 -25.00945 -60.73035 36892 ft 473 kts 158°
2026-05-05 22:27 -25.06602 -60.69320 36908 ft 473 kts 158°
2026-05-05 22:27 -25.12250 -60.65587 36913 ft 473 kts 158°
2026-05-05 22:28 -25.17897 -60.61849 36914 ft 473 kts 158°
2026-05-05 22:28 -25.23533 -60.58102 36915 ft 473 kts 158°
2026-05-05 22:29 -25.29126 -60.54382 36916 ft 472 kts 158°
2026-05-05 22:29 -25.34756 -60.50629 36914 ft 472 kts 158°
2026-05-05 22:30 -25.40381 -60.46870 36913 ft 472 kts 158°
2026-05-05 22:30 -25.46007 -60.43112 36931 ft 472 kts 158°
2026-05-05 22:31 -25.51631 -60.39358 36928 ft 472 kts 158°
2026-05-05 22:31 -25.57255 -60.35605 36924 ft 472 kts 158°
2026-05-05 22:32 -25.62871 -60.31833 36922 ft 472 kts 158°
2026-05-05 22:32 -25.68482 -60.28057 36933 ft 472 kts 158°
2026-05-05 22:33 -25.74102 -60.24290 36928 ft 472 kts 158°
2026-05-05 22:33 -25.79729 -60.20524 36924 ft 472 kts 158°
2026-05-05 22:34 -25.85358 -60.16748 36921 ft 473 kts 158°
2026-05-05 22:34 -25.90934 -60.12984 36941 ft 472 kts 158°
2026-05-05 22:35 -25.96587 -60.09162 36937 ft 472 kts 158°
2026-05-05 22:35 -26.02160 -60.05399 36934 ft 472 kts 158°
2026-05-05 22:36 -26.07771 -60.01615 36931 ft 471 kts 158°
2026-05-05 22:36 -26.13383 -59.97838 36928 ft 472 kts 158°
2026-05-05 22:37 -26.18985 -59.94024 36938 ft 472 kts 158°
2026-05-05 22:37 -26.24597 -59.90211 36929 ft 473 kts 158°
2026-05-05 22:38 -26.30214 -59.86396 36934 ft 473 kts 158°
2026-05-05 22:38 -26.35835 -59.82587 36939 ft 473 kts 158°
2026-05-05 22:39 -26.41450 -59.78765 36949 ft 472 kts 158°
2026-05-05 22:39 -26.47056 -59.74942 36941 ft 472 kts 158°
2026-05-05 22:40 -26.52665 -59.71121 36937 ft 472 kts 158°
2026-05-05 22:40 -26.58273 -59.67293 36939 ft 472 kts 158°
2026-05-05 22:41 -26.63885 -59.63469 36953 ft 472 kts 159°
2026-05-05 22:41 -26.69490 -59.59640 36939 ft 472 kts 158°
2026-05-05 22:42 -26.75093 -59.55803 36941 ft 472 kts 158°
2026-05-05 22:42 -26.80627 -59.51929 36942 ft 473 kts 157°
2026-05-05 22:43 -26.86155 -59.47935 36952 ft 473 kts 157°
2026-05-05 22:43 -26.91698 -59.43929 36950 ft 473 kts 157°
2026-05-05 22:44 -26.97236 -59.39943 36941 ft 473 kts 158°
2026-05-05 22:44 -27.02779 -59.35963 36947 ft 473 kts 158°
2026-05-05 22:45 -27.08319 -59.31988 36957 ft 473 kts 158°
2026-05-05 22:45 -27.13862 -59.27988 36943 ft 473 kts 158°
2026-05-05 22:46 -27.19397 -59.23994 36951 ft 473 kts 158°
2026-05-05 22:46 -27.24928 -59.20004 36948 ft 472 kts 158°
2026-05-05 22:47 -27.30458 -59.16013 36966 ft 473 kts 158°
2026-05-05 22:47 -27.35992 -59.12015 36959 ft 473 kts 158°
2026-05-05 22:48 -27.41561 -59.08126 36948 ft 464 kts 164°
2026-05-05 22:48 -27.44484 -59.06710 36947 ft 451 kts 173°
2026-05-05 22:48 -27.47468 -59.05772 36930 ft 440 kts 180°
2026-05-05 22:48 -27.50415 -59.05279 36929 ft 429 kts 187°
2026-05-05 22:49 -27.53383 -59.05052 36927 ft 427 kts 187°
2026-05-05 22:49 -27.59323 -59.04605 36930 ft 428 kts 187°
2026-05-05 22:50 -27.65268 -59.04155 36932 ft 428 kts 187°
2026-05-05 22:50 -27.71212 -59.03712 36936 ft 428 kts 187°
2026-05-05 22:51 -27.77165 -59.03262 36958 ft 428 kts 187°
2026-05-05 22:51 -27.83112 -59.02810 36955 ft 428 kts 187°
2026-05-05 22:52 -27.89056 -59.02355 36953 ft 428 kts 187°
2026-05-05 22:52 -27.94990 -59.01909 36957 ft 427 kts 187°
2026-05-05 22:53 -28.00925 -59.01464 36969 ft 427 kts 187°
2026-05-05 22:53 -28.06852 -59.01017 36962 ft 427 kts 187°
2026-05-05 22:54 -28.12778 -59.00558 36963 ft 427 kts 187°
2026-05-05 22:54 -28.18704 -59.00100 36960 ft 427 kts 187°
2026-05-05 22:55 -28.24587 -58.99652 36979 ft 427 kts 188°
2026-05-05 22:55 -28.30512 -58.99195 36974 ft 427 kts 187°
2026-05-05 22:56 -28.33827 -58.98943 36974 ft 427 kts 187°
2026-05-05 22:56 -28.39753 -58.98489 36957 ft 427 kts 187°
2026-05-05 22:57 -28.44197 -58.98146 36952 ft 427 kts 187°
2026-05-05 22:57 -28.50120 -58.97695 36969 ft 427 kts 188°
2026-05-05 22:58 -28.56046 -58.97251 36961 ft 427 kts 188°
2026-05-05 22:58 -28.61976 -58.96793 36956 ft 427 kts 187°
2026-05-05 22:59 -28.67899 -58.96320 36953 ft 427 kts 187°
2026-05-05 22:59 -28.73832 -58.95851 36973 ft 427 kts 188°
2026-05-05 23:00 -28.82688 -58.95186 36964 ft 427 kts 188°
2026-05-05 23:00 -28.88626 -58.94725 36956 ft 427 kts 188°
2026-05-05 23:01 -28.94561 -58.94259 36957 ft 427 kts 188°
2026-05-05 23:01 -29.00498 -58.93785 36959 ft 428 kts 188°
2026-05-05 23:02 -29.06437 -58.93323 36949 ft 428 kts 188°
2026-05-05 23:02 -29.12377 -58.92861 36946 ft 428 kts 188°
2026-05-05 23:03 -29.18320 -58.92396 36941 ft 428 kts 188°
2026-05-05 23:03 -29.24265 -58.91928 36967 ft 428 kts 188°
2026-05-05 23:04 -29.30211 -58.91464 36961 ft 428 kts 188°
2026-05-05 23:04 -29.36153 -58.91000 36951 ft 428 kts 188°
2026-05-05 23:05 -29.42097 -58.90534 36941 ft 428 kts 188°
2026-05-05 23:05 -29.48001 -58.90066 36962 ft 428 kts 188°
2026-05-05 23:06 -29.53950 -58.89598 36956 ft 428 kts 188°
2026-05-05 23:06 -29.59893 -58.89129 36949 ft 428 kts 188°
2026-05-05 23:07 -29.65838 -58.88661 36943 ft 428 kts 188°
2026-05-05 23:07 -29.71784 -58.88198 36950 ft 428 kts 188°
2026-05-05 23:08 -29.77729 -58.87729 36954 ft 428 kts 188°
2026-05-05 23:08 -29.83676 -58.87257 36948 ft 428 kts 188°
2026-05-05 23:09 -29.89621 -58.86795 36944 ft 428 kts 188°
2026-05-05 23:09 -29.95570 -58.86328 36938 ft 428 kts 188°
2026-05-05 23:10 -30.01520 -58.85857 36937 ft 428 kts 188°
2026-05-05 23:10 -30.07464 -58.85391 36937 ft 428 kts 188°
2026-05-05 23:11 -30.13409 -58.84920 36937 ft 428 kts 188°
2026-05-05 23:11 -30.19354 -58.84452 36937 ft 428 kts 188°
2026-05-05 23:12 -30.25296 -58.83986 36956 ft 428 kts 188°
2026-05-05 23:12 -30.31235 -58.83514 36951 ft 428 kts 188°
2026-05-05 23:13 -30.37172 -58.83035 36946 ft 428 kts 188°
2026-05-05 23:13 -30.43110 -58.82560 36943 ft 427 kts 188°
2026-05-05 23:14 -30.48035 -58.82171 36959 ft 427 kts 188°
2026-05-05 23:14 -30.53965 -58.81694 36945 ft 427 kts 188°
2026-05-05 23:15 -30.60856 -58.81095 36943 ft 427 kts 188°
2026-05-05 23:15 -30.66785 -58.80579 36939 ft 427 kts 188°
2026-05-05 23:16 -30.71750 -58.80152 36961 ft 427 kts 188°
2026-05-05 23:16 -30.77685 -58.79645 36952 ft 428 kts 188°
2026-05-05 23:17 -30.83618 -58.79140 36943 ft 428 kts 188°
2026-05-05 23:17 -30.89519 -58.78632 36939 ft 428 kts 188°
2026-05-05 23:18 -30.95461 -58.78119 36944 ft 428 kts 187°
2026-05-05 23:18 -31.01404 -58.77650 36938 ft 428 kts 188°
2026-05-05 23:19 -31.07350 -58.77201 36937 ft 428 kts 188°
2026-05-05 23:19 -31.13299 -58.76731 36935 ft 429 kts 188°
2026-05-05 23:20 -31.19263 -58.76247 36945 ft 430 kts 187°
2026-05-05 23:20 -31.25234 -58.75772 36937 ft 430 kts 187°
2026-05-05 23:21 -31.31216 -58.75292 36935 ft 431 kts 187°
2026-05-05 23:21 -31.37200 -58.74820 36935 ft 431 kts 187°
2026-05-05 23:22 -31.43193 -58.74345 36941 ft 432 kts 187°
2026-05-05 23:22 -31.49185 -58.73864 36943 ft 432 kts 187°
2026-05-05 23:23 -31.55186 -58.73379 36942 ft 432 kts 187°
2026-05-05 23:23 -31.61184 -58.72902 36972 ft 432 kts 187°
2026-05-05 23:24 -31.67190 -58.72434 36957 ft 433 kts 187°
2026-05-05 23:24 -31.73201 -58.71959 36951 ft 433 kts 187°
2026-05-05 23:25 -31.79223 -58.71470 36949 ft 434 kts 187°
2026-05-05 23:25 -31.85250 -58.70981 36963 ft 434 kts 186°
2026-05-05 23:26 -31.91241 -58.70497 36953 ft 435 kts 186°
2026-05-05 23:26 -31.97286 -58.70014 36952 ft 435 kts 186°
2026-05-05 23:27 -32.03336 -58.69522 36950 ft 436 kts 186°
2026-05-05 23:27 -32.09391 -58.69026 36977 ft 436 kts 186°
2026-05-05 23:28 -32.15449 -58.68540 36961 ft 437 kts 186°
2026-05-05 23:28 -32.21514 -58.68047 36956 ft 437 kts 186°
2026-05-05 23:29 -32.27590 -58.67551 36957 ft 437 kts 186°
2026-05-05 23:29 -32.33665 -58.67061 36957 ft 438 kts 186°
2026-05-05 23:30 -32.39742 -58.66563 36958 ft 438 kts 186°
2026-05-05 23:30 -32.45825 -58.66058 36963 ft 438 kts 186°
2026-05-05 23:31 -32.49995 -58.65712 36963 ft 438 kts 186°
2026-05-05 23:31 -32.53304 -58.65434 36987 ft 438 kts 186°
2026-05-05 23:32 -32.57321 -58.65096 36981 ft 438 kts 186°
2026-05-05 23:32 -32.60361 -58.64839 36877 ft 439 kts 186°
2026-05-05 23:32 -32.63401 -58.64582 36615 ft 438 kts 186°
2026-05-05 23:33 -32.65961 -58.64367 36408 ft 438 kts 186°
2026-05-05 23:33 -32.69002 -58.64112 36160 ft 438 kts 186°
2026-05-05 23:33 -32.72049 -58.63857 35911 ft 439 kts 186°
2026-05-05 23:34 -32.75098 -58.63599 35663 ft 440 kts 186°
2026-05-05 23:34 -32.78162 -58.63342 35449 ft 443 kts 185°
2026-05-05 23:34 -32.81248 -58.63085 35210 ft 446 kts 185°
2026-05-05 23:34 -32.84345 -58.62827 34968 ft 447 kts 185°
2026-05-05 23:35 -32.87408 -58.62571 34732 ft 448 kts 185°
2026-05-05 23:35 -32.90523 -58.62310 34100 ft 451 kts 184°
2026-05-05 23:35 -32.93680 -58.62048 33115 ft 458 kts 184°
2026-05-05 23:35 -32.96872 -58.61781 32218 ft 461 kts 184°
2026-05-05 23:36 -33.00071 -58.61525 31637 ft 457 kts 186°
2026-05-05 23:36 -33.03200 -58.61657 31052 ft 445 kts 193°
2026-05-05 23:36 -33.06270 -58.62005 30490 ft 442 kts 193°
2026-05-05 23:36 -33.09323 -58.62359 29881 ft 439 kts 193°
2026-05-05 23:37 -33.12351 -58.62713 29269 ft 435 kts 193°
2026-05-05 23:37 -33.15350 -58.63065 28694 ft 430 kts 193°
2026-05-05 23:37 -33.18312 -58.63413 28123 ft 426 kts 193°
2026-05-05 23:37 -33.21247 -58.63758 27595 ft 422 kts 192°
2026-05-05 23:38 -33.24155 -58.64100 26998 ft 419 kts 192°
2026-05-05 23:38 -33.27039 -58.64438 26446 ft 415 kts 192°
2026-05-05 23:38 -33.29899 -58.64772 25905 ft 411 kts 192°
2026-05-05 23:38 -33.32669 -58.65094 25384 ft 408 kts 192°
2026-05-05 23:39 -33.32973 -58.65129 25322 ft 407 kts 192°
2026-05-05 23:39 -33.35781 -58.65455 24816 ft 404 kts 192°
2026-05-05 23:39 -33.38567 -58.65778 24309 ft 401 kts 192°
2026-05-05 23:40 -33.41330 -58.66099 23830 ft 398 kts 192°
2026-05-05 23:40 -33.44082 -58.66417 23305 ft 396 kts 192°
2026-05-05 23:40 -33.46808 -58.66732 22822 ft 392 kts 191°
2026-05-05 23:40 -33.49510 -58.67046 22351 ft 388 kts 191°
2026-05-05 23:41 -33.52180 -58.67358 21880 ft 384 kts 191°
2026-05-05 23:41 -33.54822 -58.67670 21420 ft 380 kts 191°
2026-05-05 23:41 -33.57442 -58.67979 20936 ft 377 kts 191°
2026-05-05 23:41 -33.60039 -58.68285 20459 ft 373 kts 191°
2026-05-05 23:42 -33.62615 -58.68589 19966 ft 371 kts 191°
2026-05-05 23:42 -33.65175 -58.68890 19471 ft 369 kts 191°
2026-05-05 23:42 -33.67722 -58.69188 18970 ft 367 kts 191°
2026-05-05 23:42 -33.70228 -58.69478 18475 ft 366 kts 190°
2026-05-05 23:43 -33.72797 -58.69777 17902 ft 366 kts 190°
2026-05-05 23:43 -33.75288 -58.70070 17393 ft 363 kts 190°
2026-05-05 23:43 -33.77791 -58.70365 16877 ft 361 kts 190°
2026-05-05 23:43 -33.80284 -58.70658 16362 ft 358 kts 190°
2026-05-05 23:44 -33.82758 -58.70950 15846 ft 357 kts 189°
2026-05-05 23:44 -33.85223 -58.71242 15329 ft 355 kts 189°
2026-05-05 23:44 -33.87676 -58.71534 14800 ft 354 kts 189°
2026-05-05 23:44 -33.90125 -58.71825 14292 ft 353 kts 189°
2026-05-05 23:45 -33.92568 -58.72114 13760 ft 353 kts 189°
2026-05-05 23:45 -33.95009 -58.72385 13190 ft 352 kts 188°
2026-05-05 23:45 -33.97441 -58.72637 12662 ft 350 kts 188°
2026-05-05 23:45 -33.99857 -58.72877 12138 ft 348 kts 187°
2026-05-05 23:46 -34.02264 -58.73115 11621 ft 346 kts 187°
2026-05-05 23:46 -34.04658 -58.73355 11105 ft 345 kts 187°
2026-05-05 23:46 -34.07043 -58.73595 10587 ft 343 kts 187°
2026-05-05 23:46 -34.09405 -58.73835 10309 ft 335 kts 187°
2026-05-05 23:47 -34.11682 -58.74065 10189 ft 322 kts 187°
2026-05-05 23:47 -34.13871 -58.74290 10066 ft 308 kts 187°
2026-05-05 23:47 -34.15950 -58.74507 9676 ft 297 kts 186°
2026-05-05 23:47 -34.17993 -58.74723 9374 ft 293 kts 186°
2026-05-05 23:48 -34.20031 -58.74938 9001 ft 293 kts 187°
2026-05-05 23:48 -34.22051 -58.75149 8627 ft 290 kts 187°
2026-05-05 23:48 -34.24051 -58.75358 7993 ft 288 kts 187°
2026-05-05 23:48 -34.26046 -58.75566 7375 ft 287 kts 188°
2026-05-05 23:49 -34.28028 -58.75771 6755 ft 286 kts 188°
2026-05-05 23:49 -34.30001 -58.75960 6168 ft 283 kts 185°
2026-05-05 23:49 -34.31936 -58.75645 5582 ft 284 kts 164°
2026-05-05 23:49 -34.33682 -58.74573 5061 ft 282 kts 143°
2026-05-05 23:50 -34.35086 -58.72957 4527 ft 278 kts 134°
2026-05-05 23:50 -34.36421 -58.71285 4009 ft 275 kts 134°
2026-05-05 23:50 -34.37726 -58.69661 3637 ft 267 kts 134°
2026-05-05 23:50 -34.39001 -58.68076 3567 ft 249 kts 134°
2026-05-05 23:51 -34.40135 -58.66666 3503 ft 229 kts 134°
2026-05-05 23:51 -34.41200 -58.65340 3420 ft 211 kts 134°
2026-05-05 23:51 -34.42187 -58.64115 3338 ft 203 kts 133°
2026-05-05 23:51 -34.43155 -58.62916 3270 ft 192 kts 133°
2026-05-05 23:52 -34.44057 -58.61794 3159 ft 180 kts 133°
2026-05-05 23:52 -34.44896 -58.60748 3079 ft 167 kts 132°
2026-05-05 23:52 -34.45646 -58.59726 3020 ft 158 kts 128°
2026-05-05 23:52 -34.46293 -58.58695 3008 ft 153 kts 124°
2026-05-05 23:53 -34.46906 -58.57655 2887 ft 150 kts 123°
2026-05-05 23:53 -34.47468 -58.56674 2737 ft 149 kts 122°
2026-05-05 23:53 -34.48048 -58.55649 2549 ft 146 kts 123°
2026-05-05 23:53 -34.48619 -58.54636 2359 ft 144 kts 121°
2026-05-05 23:54 -34.49181 -58.53643 2170 ft 142 kts 121°
2026-05-05 23:54 -34.49738 -58.52651 1993 ft 141 kts 122°
2026-05-05 23:54 -34.50288 -58.51670 1814 ft 140 kts 122°
2026-05-05 23:54 -34.50835 -58.50695 1607 ft 140 kts 122°
2026-05-05 23:55 -34.51377 -58.49718 1416 ft 139 kts 122°
2026-05-05 23:55 -34.51914 -58.48768 1242 ft 138 kts 121°
2026-05-05 23:55 -34.52452 -58.47814 1064 ft 137 kts 121°
2026-05-05 23:55 -34.52980 -58.46869 900 ft 135 kts 122°
2026-05-05 23:56 -34.53504 -58.45921 723 ft 135 kts 122°
2026-05-05 23:56 -34.54033 -58.44982 572 ft 135 kts 122°
2026-05-05 23:56 -34.54553 -58.44042 387 ft 135 kts 122°
2026-05-05 23:56 -34.55062 -58.43121 198 ft 133 kts 122°
2026-05-05 23:57 -34.55586 -58.42194 30 ft 127 kts 124°
2026-05-05 23:57 -34.55992 -58.41456 25 ft 81 kts 124°
2026-05-05 23:57 -34.56205 -58.41060 27 ft 31 kts 112°
2026-05-05 23:57 -34.56234 -58.40883 25 ft 15 kts 94°
2026-05-05 23:58 -34.56237 -58.40788 25 ft 0 kts 90°
2026-05-05 23:58 -34.56237 -58.40770 27 ft 7 kts 90°
2026-05-05 23:59 -34.56215 -58.40761 29 ft 5 kts 313°
2026-05-05 23:59 -34.56172 -58.40831 28 ft 16 kts 292°
2026-05-05 23:59 -34.56142 -58.40952 29 ft 18 kts 304°
2026-05-05 23:59 -34.56056 -58.41091 29 ft 22 kts 307°
2026-05-06 00:00 -34.55962 -58.41240 28 ft 19 kts 307°
2026-05-06 00:00 -34.55885 -58.41296 28 ft 14 kts 20°
2026-05-06 00:00 -34.55820 -58.41318 29 ft 10 kts 300°
2026-05-06 00:00 -34.55775 -58.41396 28 ft 13 kts 304°
2026-05-06 00:01 -34.55740 -58.41459 28 ft 4 kts 307°
2026-05-06 00:01 -34.55718 -58.41452 27 ft 3 kts 25°
2026-05-06 00:01 -34.55700 -58.41445 25 ft 0 kts 16°
2026-05-06 00:01 -34.55697 -58.41444 25 ft 0 kts 17°